Time,TemperatureF,DewpointF,PressureIn,WindDirection,WindDirectionDegrees,WindSpeedMPH,WindSpeedGustMPH,Humidity,HourlyPrecipIn,Conditions,Clouds,dailyrainin,SoftwareType,DateUTC
2013-10-04 00:02:00,66.0,63.0,29.94,SW,223,6.0,14.0,90,0.04,,,0.36,meteohub,2013-10-04 05:02:00,
2013-10-04 00:07:00,66.0,63.0,29.94,SSW,202,4.0,14.0,90,0.04,,,0.00,meteohub,2013-10-04 05:07:00,
2013-10-04 00:10:00,66.0,63.0,29.94,SSW,208,9.0,12.0,90,0.04,,,0.00,meteohub,2013-10-04 05:10:00,
2013-10-04 00:14:00,66.2,63.1,29.94,SSW,204,6.0,12.0,90,0.04,,,0.00,meteohub,2013-10-04 05:14:00,
2013-10-04 00:19:00,66.4,63.0,29.94,South,178,7.0,11.0,89,0.04,,,0.00,meteohub,2013-10-04 05:19:00,
2013-10-04 00:21:00,66.4,63.0,29.94,SW,217,7.0,11.0,89,0.04,,,0.00,meteohub,2013-10-04 05:21:00,
2013-10-04 00:29:00,66.6,63.1,29.94,SSW,213,6.0,11.0,89,0.04,,,0.00,meteohub,2013-10-04 05:29:00,
2013-10-04 00:31:00,66.6,63.1,29.94,SSW,213,2.0,11.0,89,0.04,,,0.00,meteohub,2013-10-04 05:31:00,
2013-10-04 00:36:00,66.6,63.1,29.94,South,178,5.0,11.0,89,0.04,,,0.00,meteohub,2013-10-04 05:36:00,
2013-10-04 00:41:00,66.4,63.0,29.94,SSW,194,3.0,9.0,89,0.03,,,0.00,meteohub,2013-10-04 05:41:00,
2013-10-04 00:46:00,66.4,63.3,29.94,SSW,209,5.0,9.0,90,0.02,,,0.00,meteohub,2013-10-04 05:46:00,
2013-10-04 00:51:00,66.2,63.1,29.95,SSW,209,4.0,9.0,90,0.01,,,0.00,meteohub,2013-10-04 05:51:00,
2013-10-04 00:56:00,66.2,63.1,29.94,SSW,193,1.0,8.0,90,0.00,,,0.00,meteohub,2013-10-04 05:56:00,
2013-10-04 01:01:00,66.2,62.8,29.94,SSW,194,6.0,8.0,89,0.00,,,0.00,meteohub,2013-10-04 06:01:00,
2013-10-04 01:06:00,66.0,63.0,29.94,SSW,196,3.0,9.0,90,0.00,,,0.00,meteohub,2013-10-04 06:06:00,
2013-10-04 01:11:00,65.8,62.8,29.94,South,171,1.0,9.0,90,0.00,,,0.00,meteohub,2013-10-04 06:11:00,
2013-10-04 01:16:00,65.8,62.8,29.94,South,190,1.0,9.0,90,0.00,,,0.00,meteohub,2013-10-04 06:16:00,
2013-10-04 01:21:00,65.7,63.0,29.94,South,175,1.0,8.0,91,0.00,,,0.00,meteohub,2013-10-04 06:21:00,
2013-10-04 01:26:00,65.7,63.0,29.94,SSW,195,1.0,7.0,91,0.00,,,0.00,meteohub,2013-10-04 06:26:00,
2013-10-04 01:31:00,65.7,63.0,29.94,South,179,1.0,5.0,91,0.00,,,0.00,meteohub,2013-10-04 06:31:00,
2013-10-04 01:36:00,65.5,62.8,29.94,South,186,1.0,5.0,91,0.00,,,0.00,meteohub,2013-10-04 06:36:00,
2013-10-04 01:41:00,65.5,63.1,29.94,SSE,155,0.0,5.0,92,0.00,,,0.00,meteohub,2013-10-04 06:41:00,
2013-10-04 01:46:00,65.5,63.1,29.94,SSE,155,0.0,4.0,92,0.00,,,0.00,meteohub,2013-10-04 06:46:00,
2013-10-04 01:51:00,65.3,63.0,29.95,SSE,156,0.0,4.0,92,0.00,,,0.00,meteohub,2013-10-04 06:51:00,
2013-10-04 01:56:00,65.3,63.0,29.95,SSE,156,0.0,4.0,92,0.00,,,0.00,meteohub,2013-10-04 06:56:00,
2013-10-04 02:01:00,65.3,63.1,29.95,SSE,156,0.0,4.0,93,0.00,,,0.00,meteohub,2013-10-04 07:01:00,
2013-10-04 02:06:00,65.3,63.1,29.95,SSE,156,0.0,1.0,93,0.00,,,0.00,meteohub,2013-10-04 07:06:00,
2013-10-04 02:12:00,65.3,63.1,29.95,SSE,160,1.0,2.0,93,0.00,,,0.00,meteohub,2013-10-04 07:12:00,
2013-10-04 02:17:00,65.3,63.1,29.95,South,181,0.0,4.0,93,0.00,,,0.00,meteohub,2013-10-04 07:17:00,
2013-10-04 02:22:00,65.3,63.1,29.95,South,181,3.0,4.0,93,0.00,,,0.00,meteohub,2013-10-04 07:22:00,
2013-10-04 02:27:00,65.3,63.1,29.94,South,174,2.0,4.0,93,0.00,,,0.00,meteohub,2013-10-04 07:27:00,
2013-10-04 02:32:00,65.3,63.1,29.94,South,175,0.0,5.0,93,0.00,,,0.00,meteohub,2013-10-04 07:32:00,
2013-10-04 02:37:00,65.3,63.1,29.94,South,186,6.0,6.0,93,0.00,,,0.00,meteohub,2013-10-04 07:37:00,
2013-10-04 02:42:00,65.3,63.1,29.94,SSE,167,2.0,6.0,93,0.00,,,0.00,meteohub,2013-10-04 07:42:00,
2013-10-04 02:47:00,65.5,63.3,29.95,South,188,0.0,6.0,93,0.00,,,0.00,meteohub,2013-10-04 07:47:00,
2013-10-04 02:52:00,65.5,63.3,29.94,South,177,2.0,6.0,93,0.00,,,0.00,meteohub,2013-10-04 07:52:00,
2013-10-04 02:57:00,65.7,63.5,29.94,South,186,2.0,5.0,93,0.00,,,0.00,meteohub,2013-10-04 07:57:00,
2013-10-04 03:02:00,65.7,63.5,29.94,South,188,0.0,4.0,93,0.00,,,0.00,meteohub,2013-10-04 08:02:00,
2013-10-04 03:07:00,65.7,63.5,29.94,South,186,0.0,4.0,93,0.00,,,0.00,meteohub,2013-10-04 08:07:00,
2013-10-04 03:12:00,65.7,63.5,29.94,South,191,4.0,4.0,93,0.00,,,0.00,meteohub,2013-10-04 08:12:00,
2013-10-04 03:17:00,65.7,63.5,29.94,South,190,0.0,6.0,93,0.00,,,0.00,meteohub,2013-10-04 08:17:00,
2013-10-04 03:22:00,65.7,63.5,29.94,South,184,0.0,6.0,93,0.00,,,0.00,meteohub,2013-10-04 08:22:00,
2013-10-04 03:27:00,65.8,63.5,29.94,SSE,167,0.0,6.0,92,0.00,,,0.00,meteohub,2013-10-04 08:27:00,
2013-10-04 03:32:00,65.8,63.5,29.94,South,180,0.0,6.0,92,0.00,,,0.00,meteohub,2013-10-04 08:32:00,
2013-10-04 03:37:00,65.8,63.5,29.94,South,178,5.0,6.0,92,0.00,,,0.00,meteohub,2013-10-04 08:37:00,
2013-10-04 03:42:00,65.8,63.5,29.94,South,188,2.0,6.0,92,0.00,,,0.00,meteohub,2013-10-04 08:42:00,
2013-10-04 03:47:00,65.8,63.5,29.93,SSW,196,0.0,6.0,92,0.00,,,0.00,meteohub,2013-10-04 08:47:00,
2013-10-04 03:52:00,65.8,63.5,29.93,South,190,0.0,6.0,92,0.00,,,0.00,meteohub,2013-10-04 08:52:00,
2013-10-04 03:57:00,66.0,63.3,29.94,South,186,4.0,6.0,91,0.00,,,0.00,meteohub,2013-10-04 08:57:00,
2013-10-04 04:02:00,66.0,63.3,29.94,South,188,2.0,6.0,91,0.00,,,0.00,meteohub,2013-10-04 09:02:00,
2013-10-04 04:07:00,66.0,63.3,29.94,South,184,2.0,6.0,91,0.00,,,0.00,meteohub,2013-10-04 09:07:00,
2013-10-04 04:12:00,66.0,63.3,29.94,SSW,197,5.0,6.0,91,0.00,,,0.00,meteohub,2013-10-04 09:12:00,
2013-10-04 04:17:00,66.0,63.3,29.94,South,191,1.0,6.0,91,0.00,,,0.00,meteohub,2013-10-04 09:17:00,
2013-10-04 04:22:00,66.0,63.3,29.94,SSW,202,2.0,6.0,91,0.00,,,0.00,meteohub,2013-10-04 09:22:00,
2013-10-04 04:27:00,66.0,63.3,29.94,SSW,195,2.0,6.0,91,0.00,,,0.00,meteohub,2013-10-04 09:27:00,
2013-10-04 04:32:00,66.0,63.3,29.94,South,179,0.0,6.0,91,0.00,,,0.00,meteohub,2013-10-04 09:32:00,
2013-10-04 04:37:00,66.0,63.3,29.94,South,180,0.0,6.0,91,0.00,,,0.00,meteohub,2013-10-04 09:37:00,
2013-10-04 04:42:00,66.0,63.3,29.95,South,180,0.0,5.0,91,0.00,,,0.00,meteohub,2013-10-04 09:42:00,
2013-10-04 04:47:00,66.0,63.3,29.95,South,180,0.0,5.0,91,0.00,,,0.00,meteohub,2013-10-04 09:47:00,
2013-10-04 04:52:00,66.0,63.3,29.95,South,180,0.0,4.0,91,0.00,,,0.00,meteohub,2013-10-04 09:52:00,
2013-10-04 04:57:00,66.0,63.3,29.95,South,180,0.0,4.0,91,0.00,,,0.00,meteohub,2013-10-04 09:57:00,
2013-10-04 05:02:00,66.0,63.7,29.95,South,180,0.0,4.0,92,0.00,,,0.00,meteohub,2013-10-04 10:02:00,
2013-10-04 05:07:00,66.0,63.7,29.95,South,180,0.0,2.0,92,0.00,,,0.00,meteohub,2013-10-04 10:07:00,
2013-10-04 05:12:00,66.2,63.9,29.95,South,180,1.0,4.0,92,0.00,,,0.00,meteohub,2013-10-04 10:12:00,
2013-10-04 05:17:00,66.0,63.7,29.95,South,180,0.0,4.0,92,0.00,,,0.00,meteohub,2013-10-04 10:17:00,
2013-10-04 05:22:00,66.2,63.9,29.95,South,180,1.0,4.0,92,0.00,,,0.00,meteohub,2013-10-04 10:22:00,
2013-10-04 05:27:00,66.2,63.9,29.95,South,180,0.0,4.0,92,0.00,,,0.00,meteohub,2013-10-04 10:27:00,
2013-10-04 05:32:00,66.2,63.9,29.95,South,180,0.0,4.0,92,0.00,,,0.00,meteohub,2013-10-04 10:32:00,
2013-10-04 05:37:00,66.2,63.9,29.96,South,191,2.0,4.0,92,0.00,,,0.00,meteohub,2013-10-04 10:37:00,
2013-10-04 05:42:00,66.2,63.9,29.96,South,191,0.0,4.0,92,0.00,,,0.00,meteohub,2013-10-04 10:42:00,
2013-10-04 05:47:00,66.2,63.9,29.96,South,191,0.0,4.0,92,0.00,,,0.00,meteohub,2013-10-04 10:47:00,
2013-10-04 05:52:00,66.2,63.9,29.96,South,191,0.0,2.0,92,0.00,,,0.00,meteohub,2013-10-04 10:52:00,
2013-10-04 05:57:00,66.0,63.7,29.96,South,191,0.0,2.0,92,0.00,,,0.00,meteohub,2013-10-04 10:57:00,
2013-10-04 06:02:00,66.0,63.7,29.96,South,191,0.0,0.0,92,0.00,,,0.00,meteohub,2013-10-04 11:02:00,
2013-10-04 06:07:00,66.0,63.7,29.96,South,191,0.0,0.0,92,0.00,,,0.00,meteohub,2013-10-04 11:07:00,
2013-10-04 06:12:00,66.0,63.9,29.97,South,191,0.0,0.0,93,0.00,,,0.00,meteohub,2013-10-04 11:12:00,
2013-10-04 06:17:00,66.0,63.9,29.97,South,191,0.0,0.0,93,0.00,,,0.00,meteohub,2013-10-04 11:17:00,
2013-10-04 06:22:00,66.2,64.0,29.97,South,191,0.0,0.0,93,0.00,,,0.00,meteohub,2013-10-04 11:22:00,
2013-10-04 06:27:00,66.4,64.2,29.97,South,191,0.0,0.0,93,0.00,,,0.00,meteohub,2013-10-04 11:27:00,
2013-10-04 06:32:00,66.4,64.2,29.97,South,191,0.0,2.0,93,0.00,,,0.00,meteohub,2013-10-04 11:32:00,
2013-10-04 06:37:00,66.4,64.2,29.97,South,191,0.0,2.0,93,0.00,,,0.00,meteohub,2013-10-04 11:37:00,
2013-10-04 06:42:00,66.6,64.4,29.97,SSW,206,0.0,5.0,93,0.00,,,0.00,meteohub,2013-10-04 11:42:00,
2013-10-04 06:47:00,66.7,64.6,29.97,SSW,203,0.0,5.0,93,0.00,,,0.00,meteohub,2013-10-04 11:47:00,
2013-10-04 06:52:00,66.9,64.8,29.97,SSW,194,0.0,5.0,93,0.00,,,0.00,meteohub,2013-10-04 11:52:00,
2013-10-04 06:57:00,67.1,64.8,29.98,South,186,0.0,5.0,92,0.00,,,0.00,meteohub,2013-10-04 11:57:00,
2013-10-04 07:02:00,67.3,64.9,29.98,SSW,203,1.0,5.0,92,0.00,,,0.00,meteohub,2013-10-04 12:02:00,
2013-10-04 07:07:00,67.3,64.9,29.98,SW,214,0.0,6.0,92,0.00,,,0.00,meteohub,2013-10-04 12:07:00,
2013-10-04 07:12:00,67.5,65.1,29.97,SSW,204,4.0,6.0,92,0.00,,,0.00,meteohub,2013-10-04 12:12:00,
2013-10-04 07:17:00,67.5,65.1,29.97,South,187,0.0,5.0,92,0.00,,,0.00,meteohub,2013-10-04 12:17:00,
2013-10-04 07:22:00,67.5,65.1,29.97,South,188,0.0,5.0,92,0.00,,,0.00,meteohub,2013-10-04 12:22:00,
2013-10-04 07:27:00,67.6,65.3,29.97,SSW,200,1.0,5.0,92,0.00,,,0.00,meteohub,2013-10-04 12:27:00,
2013-10-04 07:32:00,67.6,65.3,29.97,SSW,204,2.0,5.0,92,0.00,,,0.00,meteohub,2013-10-04 12:32:00,
2013-10-04 07:37:00,67.8,65.5,29.97,SSW,194,0.0,6.0,92,0.00,,,0.00,meteohub,2013-10-04 12:37:00,
2013-10-04 07:42:00,67.8,65.5,29.96,SSW,194,0.0,6.0,92,0.00,,,0.00,meteohub,2013-10-04 12:42:00,
2013-10-04 07:47:00,68.2,65.8,29.96,SSW,198,0.0,6.0,92,0.00,,,0.00,meteohub,2013-10-04 12:47:00,
2013-10-04 07:52:00,68.7,66.4,29.97,SSE,167,2.0,6.0,92,0.00,,,0.00,meteohub,2013-10-04 12:52:00,
2013-10-04 07:57:00,69.3,66.6,29.97,SSW,198,0.0,9.0,91,0.00,,,0.00,meteohub,2013-10-04 12:57:00,
2013-10-04 08:02:00,69.6,66.6,29.97,SW,219,3.0,9.0,90,0.00,,,0.00,meteohub,2013-10-04 13:02:00,
2013-10-04 08:07:00,70.0,66.9,29.97,South,171,2.0,9.0,90,0.00,,,0.00,meteohub,2013-10-04 13:07:00,
2013-10-04 08:12:00,70.2,67.1,29.97,SSW,201,5.0,8.0,90,0.00,,,0.00,meteohub,2013-10-04 13:12:00,
2013-10-04 08:17:00,70.5,67.1,29.97,South,186,8.0,8.0,89,0.00,,,0.00,meteohub,2013-10-04 13:17:00,
2013-10-04 08:22:00,70.9,67.5,29.97,South,190,2.0,8.0,89,0.00,,,0.00,meteohub,2013-10-04 13:22:00,
2013-10-04 08:27:00,71.2,67.8,29.97,SW,219,3.0,9.0,89,0.00,,,0.00,meteohub,2013-10-04 13:27:00,
2013-10-04 08:32:00,71.4,67.6,29.97,SSW,203,2.0,9.0,88,0.00,,,0.00,meteohub,2013-10-04 13:32:00,
2013-10-04 08:37:00,72.0,68.2,29.97,SW,223,0.0,9.0,88,0.00,,,0.00,meteohub,2013-10-04 13:37:00,
2013-10-04 08:42:00,72.3,68.2,29.97,SW,229,1.0,9.0,87,0.00,,,0.00,meteohub,2013-10-04 13:42:00,
2013-10-04 08:47:00,72.9,68.7,29.97,SW,223,1.0,9.0,87,0.00,,,0.00,meteohub,2013-10-04 13:47:00,
2013-10-04 08:52:00,73.6,68.4,29.97,South,189,5.0,9.0,84,0.00,,,0.00,meteohub,2013-10-04 13:52:00,
2013-10-04 08:57:00,74.3,68.7,29.97,WSW,237,0.0,10.0,83,0.00,,,0.00,meteohub,2013-10-04 13:57:00,
2013-10-04 09:02:00,74.8,68.9,29.98,SSW,199,5.0,10.0,82,0.00,,,0.00,meteohub,2013-10-04 14:02:00,
2013-10-04 09:08:00,75.0,69.1,29.97,SW,224,8.0,10.0,82,0.00,,,0.00,meteohub,2013-10-04 14:08:00,
2013-10-04 09:13:00,75.4,69.1,29.97,South,190,6.0,10.0,81,0.00,,,0.00,meteohub,2013-10-04 14:13:00,
2013-10-04 09:18:00,75.6,69.3,29.97,SSW,205,5.0,10.0,81,0.00,,,0.00,meteohub,2013-10-04 14:18:00,
2013-10-04 09:23:00,76.1,69.8,29.97,WSW,238,4.0,10.0,81,0.00,,,0.00,meteohub,2013-10-04 14:23:00,
2013-10-04 09:29:00,76.5,69.4,29.97,South,173,6.0,9.0,79,0.00,,,0.00,meteohub,2013-10-04 14:29:00,
2013-10-04 09:34:00,76.3,69.6,29.98,WSW,238,6.0,12.0,80,0.00,,,0.00,meteohub,2013-10-04 14:34:00,
2013-10-04 09:39:00,76.8,69.8,29.98,SSW,211,2.0,12.0,79,0.00,,,0.00,meteohub,2013-10-04 14:39:00,
2013-10-04 09:44:00,77.0,70.0,29.98,SW,234,5.0,12.0,79,0.00,,,0.00,meteohub,2013-10-04 14:44:00,
2013-10-04 09:49:00,77.5,70.2,29.98,WSW,247,8.0,11.0,78,0.00,,,0.00,meteohub,2013-10-04 14:49:00,
2013-10-04 09:55:00,77.7,70.0,29.98,WSW,245,0.0,11.0,77,0.00,,,0.00,meteohub,2013-10-04 14:55:00,
2013-10-04 10:00:00,77.9,70.5,29.98,SSW,193,4.0,11.0,78,0.00,,,0.00,meteohub,2013-10-04 15:00:00,
2013-10-04 10:05:00,78.3,70.5,29.98,SSW,213,10.0,11.0,77,0.00,,,0.00,meteohub,2013-10-04 15:05:00,
2013-10-04 10:10:00,78.4,70.7,29.98,SSW,200,2.0,12.0,77,0.00,,,0.00,meteohub,2013-10-04 15:10:00,
2013-10-04 10:15:00,79.0,70.7,29.98,SSW,213,8.0,12.0,76,0.00,,,0.00,meteohub,2013-10-04 15:15:00,
2013-10-04 10:18:00,79.2,70.5,29.98,SW,232,8.0,12.0,75,0.00,,,0.00,meteohub,2013-10-04 15:18:00,
2013-10-04 10:23:00,79.3,71.1,29.97,WSW,240,11.0,11.0,76,0.00,,,0.00,meteohub,2013-10-04 15:23:00,
2013-10-04 10:28:00,79.0,70.7,29.98,South,189,7.0,10.0,76,0.00,,,0.00,meteohub,2013-10-04 15:28:00,
2013-10-04 10:34:00,78.8,70.5,29.98,South,190,7.0,15.0,76,0.00,,,0.00,meteohub,2013-10-04 15:34:00,
2013-10-04 10:39:00,79.0,70.7,29.98,SSW,211,7.0,15.0,76,0.00,,,0.00,meteohub,2013-10-04 15:39:00,
2013-10-04 10:44:00,79.7,71.1,29.98,SW,219,6.0,11.0,75,0.00,,,0.00,meteohub,2013-10-04 15:44:00,
2013-10-04 10:49:00,79.9,70.9,29.98,South,185,5.0,13.0,74,0.00,,,0.00,meteohub,2013-10-04 15:49:00,
2013-10-04 10:54:00,79.5,70.2,29.98,SW,236,6.0,13.0,73,0.00,,,0.00,meteohub,2013-10-04 15:54:00,
2013-10-04 10:59:00,79.7,70.3,29.98,SSW,207,7.0,12.0,73,0.00,,,0.00,meteohub,2013-10-04 15:59:00,
2013-10-04 11:04:00,79.5,70.5,29.98,SSW,200,4.0,12.0,74,0.00,,,0.00,meteohub,2013-10-04 16:04:00,
2013-10-04 11:10:00,79.9,70.5,29.97,SW,234,6.0,13.0,73,0.00,,,0.00,meteohub,2013-10-04 16:10:00,
2013-10-04 11:15:00,80.1,70.7,29.97,SSW,212,4.0,13.0,73,0.00,,,0.00,meteohub,2013-10-04 16:15:00,
2013-10-04 11:20:00,80.2,70.3,29.97,SW,230,3.0,11.0,72,0.00,,,0.00,meteohub,2013-10-04 16:20:00,
2013-10-04 11:25:00,80.4,70.5,29.97,SSW,211,7.0,11.0,72,0.00,,,0.00,meteohub,2013-10-04 16:25:00,
2013-10-04 11:30:00,80.6,70.3,29.97,SSW,205,9.0,11.0,71,0.00,,,0.00,meteohub,2013-10-04 16:30:00,
2013-10-04 11:35:00,80.4,70.2,29.97,SSW,197,5.0,13.0,71,0.00,,,0.00,meteohub,2013-10-04 16:35:00,
2013-10-04 11:41:00,80.2,70.3,29.97,SW,227,4.0,13.0,72,0.00,,,0.00,meteohub,2013-10-04 16:41:00,
2013-10-04 11:46:00,80.1,70.2,29.97,WSW,244,2.0,13.0,72,0.00,,,0.00,meteohub,2013-10-04 16:46:00,
2013-10-04 11:51:00,80.1,70.2,29.97,SSW,204,6.0,8.0,72,0.00,,,0.00,meteohub,2013-10-04 16:51:00,
2013-10-04 11:56:00,80.4,70.2,29.97,South,182,5.0,8.0,71,0.00,,,0.00,meteohub,2013-10-04 16:56:00,
2013-10-04 12:01:00,81.0,70.2,29.97,South,186,4.0,8.0,70,0.00,,,0.00,meteohub,2013-10-04 17:01:00,
2013-10-04 12:06:00,82.4,70.3,29.97,South,177,8.0,8.0,67,0.00,,,0.00,meteohub,2013-10-04 17:06:00,
2013-10-04 12:11:00,82.4,70.3,29.97,SW,221,6.0,11.0,67,0.00,,,0.00,meteohub,2013-10-04 17:11:00,
2013-10-04 12:16:00,82.2,70.2,29.97,SSW,200,7.0,11.0,67,0.00,,,0.00,meteohub,2013-10-04 17:16:00,
2013-10-04 12:21:00,82.0,70.9,29.97,South,186,2.0,11.0,69,0.00,,,0.00,meteohub,2013-10-04 17:21:00,
2013-10-04 12:27:00,81.7,70.5,29.97,South,173,4.0,10.0,69,0.00,,,0.00,meteohub,2013-10-04 17:27:00,
2013-10-04 12:32:00,81.7,70.5,29.97,South,181,5.0,10.0,69,0.00,,,0.00,meteohub,2013-10-04 17:32:00,
2013-10-04 12:37:00,82.2,70.5,29.96,NW,308,0.0,7.0,68,0.00,,,0.00,meteohub,2013-10-04 17:37:00,
2013-10-04 13:02:00,82.8,69.8,29.96,WSW,248,1.0,8.0,65,0.00,,,0.00,meteohub,2013-10-04 18:02:00,
2013-10-04 13:07:00,82.0,70.0,29.96,SW,234,4.0,8.0,67,0.00,,,0.00,meteohub,2013-10-04 18:07:00,
2013-10-04 13:12:00,81.9,69.4,29.95,SW,226,0.0,7.0,66,0.00,,,0.00,meteohub,2013-10-04 18:12:00,
2013-10-04 13:17:00,82.0,70.0,29.95,South,181,4.0,5.0,67,0.00,,,0.00,meteohub,2013-10-04 18:17:00,
2013-10-04 13:22:00,82.4,70.3,29.95,SSW,196,5.0,6.0,67,0.00,,,0.00,meteohub,2013-10-04 18:22:00,
2013-10-04 13:27:00,82.4,69.4,29.95,SSE,166,3.0,6.0,65,0.00,,,0.00,meteohub,2013-10-04 18:27:00,
2013-10-04 13:32:00,83.3,70.3,29.94,South,176,4.0,7.0,65,0.00,,,0.00,meteohub,2013-10-04 18:32:00,
2013-10-04 13:37:00,83.8,70.3,29.94,SSW,193,5.0,7.0,64,0.00,,,0.00,meteohub,2013-10-04 18:37:00,
2013-10-04 13:42:00,84.4,70.0,29.94,SW,221,5.0,6.0,62,0.00,,,0.00,meteohub,2013-10-04 18:42:00,
2013-10-04 13:47:00,84.9,70.5,29.94,South,185,5.0,6.0,62,0.00,,,0.00,meteohub,2013-10-04 18:47:00,
2013-10-04 13:52:00,84.7,69.8,29.94,South,175,4.0,8.0,61,0.00,,,0.00,meteohub,2013-10-04 18:52:00,
2013-10-04 13:57:00,84.6,70.2,29.93,SE,146,3.0,9.0,62,0.00,,,0.00,meteohub,2013-10-04 18:57:00,
2013-10-04 14:02:00,83.8,70.3,29.94,South,178,5.0,9.0,64,0.00,,,0.00,meteohub,2013-10-04 19:02:00,
2013-10-04 14:07:00,83.5,69.1,29.94,South,188,7.0,11.0,62,0.00,,,0.00,meteohub,2013-10-04 19:07:00,
2013-10-04 14:12:00,82.9,69.1,29.93,South,173,6.0,12.0,63,0.00,,,0.00,meteohub,2013-10-04 19:12:00,
2013-10-04 14:17:00,81.9,69.4,29.93,SSE,157,9.0,14.0,66,0.00,,,0.00,meteohub,2013-10-04 19:17:00,
2013-10-04 14:22:00,81.3,69.3,29.93,SSE,167,4.0,14.0,67,0.00,,,0.00,meteohub,2013-10-04 19:22:00,
2013-10-04 14:27:00,81.1,69.1,29.93,SSW,193,5.0,14.0,67,0.00,,,0.00,meteohub,2013-10-04 19:27:00,
2013-10-04 14:32:00,81.0,69.4,29.93,South,180,3.0,10.0,68,0.00,,,0.00,meteohub,2013-10-04 19:32:00,
2013-10-04 14:37:00,81.1,70.0,29.93,SSW,200,9.0,10.0,69,0.00,,,0.00,meteohub,2013-10-04 19:37:00,
2013-10-04 14:42:00,81.3,69.3,29.93,SSE,148,4.0,10.0,67,0.00,,,0.00,meteohub,2013-10-04 19:42:00,
2013-10-04 14:47:00,81.5,70.0,29.93,SSE,168,2.0,10.0,68,0.00,,,0.00,meteohub,2013-10-04 19:47:00,
2013-10-04 14:52:00,81.9,70.3,29.93,SE,142,3.0,10.0,68,0.00,,,0.00,meteohub,2013-10-04 19:52:00,
2013-10-04 14:57:00,82.0,70.3,29.93,SSE,158,4.0,10.0,68,0.00,,,0.00,meteohub,2013-10-04 19:57:00,
2013-10-04 15:02:00,82.6,70.5,29.92,SE,142,6.0,7.0,67,0.00,,,0.00,meteohub,2013-10-04 20:02:00,
2013-10-04 15:07:00,83.1,70.5,29.92,SSW,195,4.0,7.0,66,0.00,,,0.00,meteohub,2013-10-04 20:07:00,
2013-10-04 15:12:00,83.8,71.2,29.92,SSW,194,6.0,7.0,66,0.00,,,0.00,meteohub,2013-10-04 20:12:00,
2013-10-04 15:17:00,83.5,70.9,29.92,South,178,6.0,9.0,66,0.00,,,0.00,meteohub,2013-10-04 20:17:00,
2013-10-04 15:22:00,83.5,70.5,29.92,SSE,165,5.0,9.0,65,0.00,,,0.00,meteohub,2013-10-04 20:22:00,
2013-10-04 15:27:00,84.0,70.5,29.92,SSW,198,6.0,9.0,64,0.00,,,0.00,meteohub,2013-10-04 20:27:00,
2013-10-04 15:32:00,83.8,70.9,29.93,SSE,148,6.0,8.0,65,0.00,,,0.00,meteohub,2013-10-04 20:32:00,
2013-10-04 15:37:00,83.7,70.2,29.92,South,174,4.0,7.0,64,0.00,,,0.00,meteohub,2013-10-04 20:37:00,
2013-10-04 15:42:00,83.7,69.8,29.92,South,186,4.0,7.0,63,0.00,,,0.00,meteohub,2013-10-04 20:42:00,
2013-10-04 15:47:00,84.0,69.1,29.92,SSE,159,7.0,7.0,61,0.00,,,0.00,meteohub,2013-10-04 20:47:00,
2013-10-04 15:52:00,84.0,69.6,29.92,SSE,167,8.0,8.0,62,0.00,,,0.00,meteohub,2013-10-04 20:52:00,
2013-10-04 15:57:00,82.9,69.1,29.92,East,90,2.0,10.0,63,0.00,,,0.00,meteohub,2013-10-04 20:57:00,
2013-10-04 16:02:00,82.2,68.9,29.92,SE,126,7.0,12.0,64,0.00,,,0.00,meteohub,2013-10-04 21:02:00,
2013-10-04 16:07:00,81.3,68.4,29.92,South,175,1.0,14.0,65,0.00,,,0.00,meteohub,2013-10-04 21:07:00,
2013-10-04 16:12:00,81.1,68.2,29.92,South,177,3.0,14.0,65,0.00,,,0.00,meteohub,2013-10-04 21:12:00,
2013-10-04 16:17:00,80.6,68.2,29.92,South,173,4.0,14.0,66,0.00,,,0.00,meteohub,2013-10-04 21:17:00,
2013-10-04 16:22:00,80.8,68.0,29.92,SSW,208,2.0,8.0,65,0.00,,,0.00,meteohub,2013-10-04 21:22:00,
2013-10-04 16:27:00,80.8,68.4,29.92,South,179,4.0,8.0,66,0.00,,,0.00,meteohub,2013-10-04 21:27:00,
2013-10-04 16:32:00,80.4,68.0,29.92,SE,143,2.0,9.0,66,0.00,,,0.00,meteohub,2013-10-04 21:32:00,
2013-10-04 16:37:00,80.4,68.5,29.92,SE,142,6.0,9.0,67,0.00,,,0.00,meteohub,2013-10-04 21:37:00,
2013-10-04 16:42:00,80.1,68.5,29.92,SSE,148,5.0,9.0,68,0.00,,,0.00,meteohub,2013-10-04 21:42:00,
2013-10-04 16:47:00,79.9,68.7,29.92,SSE,157,5.0,12.0,69,0.00,,,0.00,meteohub,2013-10-04 21:47:00,
2013-10-04 16:52:00,80.1,68.5,29.92,SE,143,8.0,12.0,68,0.00,,,0.00,meteohub,2013-10-04 21:52:00,
2013-10-04 16:57:00,80.4,68.5,29.92,SE,130,4.0,11.0,67,0.00,,,0.00,meteohub,2013-10-04 21:57:00,
2013-10-04 17:02:00,80.4,68.5,29.92,South,176,1.0,11.0,67,0.00,,,0.00,meteohub,2013-10-04 22:02:00,
2013-10-04 17:07:00,80.4,68.5,29.92,SSE,166,6.0,14.0,67,0.00,,,0.00,meteohub,2013-10-04 22:07:00,
2013-10-04 17:12:00,80.2,68.4,29.92,South,169,2.0,14.0,67,0.00,,,0.00,meteohub,2013-10-04 22:12:00,
2013-10-04 17:17:00,79.9,68.4,29.92,SSE,167,2.0,12.0,68,0.00,,,0.00,meteohub,2013-10-04 22:17:00,
2013-10-04 17:22:00,79.3,68.4,29.92,SE,146,5.0,8.0,69,0.00,,,0.00,meteohub,2013-10-04 22:22:00,
2013-10-04 17:27:00,79.2,68.2,29.92,ESE,115,6.0,8.0,69,0.00,,,0.00,meteohub,2013-10-04 22:27:00,
2013-10-04 17:32:00,79.0,68.4,29.92,SSE,151,0.0,8.0,70,0.00,,,0.00,meteohub,2013-10-04 22:32:00,
2013-10-04 17:37:00,79.0,68.4,29.92,SSE,152,2.0,7.0,70,0.00,,,0.00,meteohub,2013-10-04 22:37:00,
2013-10-04 17:42:00,78.6,68.4,29.92,South,191,3.0,7.0,71,0.00,,,0.00,meteohub,2013-10-04 22:42:00,
2013-10-04 17:48:00,78.6,68.4,29.92,SE,143,0.0,7.0,71,0.00,,,0.00,meteohub,2013-10-04 22:48:00,
2013-10-04 17:53:00,78.4,68.7,29.93,SW,214,4.0,7.0,72,0.00,,,0.00,meteohub,2013-10-04 22:53:00,
2013-10-04 17:58:00,78.3,68.5,29.92,SSE,162,2.0,7.0,72,0.00,,,0.00,meteohub,2013-10-04 22:58:00,
2013-10-04 18:03:00,78.1,68.7,29.92,South,184,2.0,10.0,73,0.00,,,0.00,meteohub,2013-10-04 23:03:00,
2013-10-04 18:08:00,77.7,68.4,29.92,SSE,158,3.0,10.0,73,0.00,,,0.00,meteohub,2013-10-04 23:08:00,
2013-10-04 18:13:00,77.5,68.5,29.92,SSE,154,2.0,8.0,74,0.00,,,0.00,meteohub,2013-10-04 23:13:00,
2013-10-04 18:18:00,77.4,68.4,29.92,SE,129,4.0,6.0,74,0.00,,,0.00,meteohub,2013-10-04 23:18:00,
2013-10-04 18:23:00,77.2,68.2,29.92,SSE,167,0.0,7.0,74,0.00,,,0.00,meteohub,2013-10-04 23:23:00,
2013-10-04 18:28:00,77.0,68.0,29.92,SSE,161,1.0,7.0,74,0.00,,,0.00,meteohub,2013-10-04 23:28:00,
2013-10-04 18:33:00,76.6,68.2,29.92,South,187,5.0,7.0,75,0.00,,,0.00,meteohub,2013-10-04 23:33:00,
2013-10-04 18:38:00,76.5,68.0,29.92,SE,138,5.0,7.0,75,0.00,,,0.00,meteohub,2013-10-04 23:38:00,
2013-10-04 18:43:00,76.3,68.2,29.93,SE,140,3.0,8.0,76,0.00,,,0.00,meteohub,2013-10-04 23:43:00,
2013-10-04 18:48:00,76.1,68.0,29.92,SE,143,1.0,8.0,76,0.00,,,0.00,meteohub,2013-10-04 23:48:00,
2013-10-04 18:53:00,75.9,68.2,29.93,SE,138,4.0,7.0,77,0.00,,,0.00,meteohub,2013-10-04 23:53:00,
2013-10-04 18:58:00,75.7,68.0,29.92,South,184,3.0,7.0,77,0.00,,,0.00,meteohub,2013-10-04 23:58:00,
2013-10-04 19:03:00,75.9,68.5,29.92,SSE,155,5.0,7.0,78,0.00,,,0.00,meteohub,2013-10-05 00:03:00,
2013-10-04 19:08:00,75.9,68.5,29.92,SSE,161,2.0,7.0,78,0.00,,,0.00,meteohub,2013-10-05 00:08:00,
2013-10-04 19:13:00,75.9,68.5,29.93,SE,141,0.0,7.0,78,0.00,,,0.00,meteohub,2013-10-05 00:13:00,
2013-10-04 19:19:00,75.9,68.9,29.93,SE,131,4.0,7.0,79,0.00,,,0.00,meteohub,2013-10-05 00:19:00,
2013-10-04 19:24:00,75.9,68.9,29.93,SSE,163,0.0,7.0,79,0.00,,,0.00,meteohub,2013-10-05 00:24:00,
2013-10-04 19:29:00,76.1,69.1,29.93,SE,140,5.0,7.0,79,0.00,,,0.00,meteohub,2013-10-05 00:29:00,
2013-10-04 19:34:00,76.1,69.4,29.93,SSE,157,3.0,7.0,80,0.00,,,0.00,meteohub,2013-10-05 00:34:00,
2013-10-04 19:39:00,76.1,69.4,29.93,SSE,161,2.0,7.0,80,0.00,,,0.00,meteohub,2013-10-05 00:39:00,
2013-10-04 19:44:00,76.1,69.4,29.94,SSE,149,3.0,7.0,80,0.00,,,0.00,meteohub,2013-10-05 00:44:00,
2013-10-04 19:49:00,75.9,69.3,29.94,SSE,154,4.0,7.0,80,0.00,,,0.00,meteohub,2013-10-05 00:49:00,
2013-10-04 19:54:00,75.9,69.3,29.94,SE,146,2.0,7.0,80,0.00,,,0.00,meteohub,2013-10-05 00:54:00,
2013-10-04 19:59:00,75.9,69.3,29.94,SSE,163,4.0,7.0,80,0.00,,,0.00,meteohub,2013-10-05 00:59:00,
2013-10-04 20:04:00,75.7,69.1,29.94,South,185,2.0,7.0,80,0.00,,,0.00,meteohub,2013-10-05 01:04:00,
2013-10-04 20:09:00,75.7,69.4,29.94,SE,132,5.0,7.0,81,0.00,,,0.00,meteohub,2013-10-05 01:09:00,
2013-10-04 20:14:00,75.6,69.3,29.94,SSE,167,3.0,7.0,81,0.00,,,0.00,meteohub,2013-10-05 01:14:00,
2013-10-04 20:19:00,75.6,69.3,29.94,South,183,4.0,6.0,81,0.00,,,0.00,meteohub,2013-10-05 01:19:00,
2013-10-04 20:25:00,75.6,69.6,29.94,South,174,5.0,7.0,82,0.00,,,0.00,meteohub,2013-10-05 01:25:00,
2013-10-04 20:30:00,75.4,69.4,29.94,South,183,4.0,7.0,82,0.00,,,0.00,meteohub,2013-10-05 01:30:00,
2013-10-04 20:35:00,75.4,69.4,29.94,SSE,163,2.0,7.0,82,0.00,,,0.00,meteohub,2013-10-05 01:35:00,
2013-10-04 20:40:00,75.2,69.3,29.94,SSE,150,2.0,6.0,82,0.00,,,0.00,meteohub,2013-10-05 01:40:00,
2013-10-04 20:45:00,75.0,69.1,29.94,SE,142,5.0,7.0,82,0.00,,,0.00,meteohub,2013-10-05 01:45:00,
2013-10-04 20:50:00,75.0,69.1,29.95,South,182,5.0,7.0,82,0.00,,,0.00,meteohub,2013-10-05 01:50:00,
2013-10-04 20:55:00,75.0,69.1,29.95,SSE,161,5.0,7.0,82,0.00,,,0.00,meteohub,2013-10-05 01:55:00,
2013-10-04 21:00:00,74.8,69.3,29.95,SSE,163,1.0,7.0,83,0.00,,,0.00,meteohub,2013-10-05 02:00:00,
2013-10-04 21:05:00,74.8,69.3,29.95,SSW,205,5.0,7.0,83,0.00,,,0.00,meteohub,2013-10-05 02:05:00,
2013-10-04 21:10:00,74.8,69.3,29.95,South,173,5.0,7.0,83,0.00,,,0.00,meteohub,2013-10-05 02:10:00,
2013-10-04 21:15:00,74.7,69.1,29.95,SSW,200,3.0,8.0,83,0.00,,,0.00,meteohub,2013-10-05 02:15:00,
2013-10-04 21:20:00,74.7,69.1,29.96,South,169,2.0,8.0,83,0.00,,,0.00,meteohub,2013-10-05 02:20:00,
2013-10-04 21:25:00,74.7,69.1,29.96,South,169,2.0,8.0,83,0.00,,,0.00,meteohub,2013-10-05 02:25:00,
2013-10-04 21:30:00,74.7,69.1,29.96,South,188,4.0,8.0,83,0.00,,,0.00,meteohub,2013-10-05 02:30:00,
2013-10-04 21:35:00,74.7,69.1,29.96,SSE,159,3.0,8.0,83,0.00,,,0.00,meteohub,2013-10-05 02:35:00,
2013-10-04 21:40:00,74.7,69.1,29.96,South,172,3.0,7.0,83,0.00,,,0.00,meteohub,2013-10-05 02:40:00,
2013-10-04 21:45:00,74.5,68.9,29.96,SSW,199,5.0,7.0,83,0.00,,,0.00,meteohub,2013-10-05 02:45:00,
2013-10-04 21:50:00,74.5,68.9,29.96,SSW,193,4.0,7.0,83,0.00,,,0.00,meteohub,2013-10-05 02:50:00,
2013-10-04 21:55:00,74.5,68.9,29.96,SSW,197,7.0,7.0,83,0.00,,,0.00,meteohub,2013-10-05 02:55:00,
2013-10-04 22:00:00,74.3,68.7,29.96,South,171,5.0,8.0,83,0.00,,,0.00,meteohub,2013-10-05 03:00:00,
2013-10-04 22:06:00,74.3,68.7,29.96,South,175,3.0,8.0,83,0.00,,,0.00,meteohub,2013-10-05 03:06:00,
2013-10-04 22:11:00,74.1,68.9,29.96,South,184,4.0,8.0,84,0.00,,,0.00,meteohub,2013-10-05 03:11:00,
2013-10-04 22:16:00,74.1,68.9,29.96,South,178,5.0,8.0,84,0.00,,,0.00,meteohub,2013-10-05 03:16:00,
2013-10-04 22:21:00,74.1,68.9,29.96,SSE,159,4.0,7.0,84,0.00,,,0.00,meteohub,2013-10-05 03:21:00,
2013-10-04 22:26:00,74.1,68.9,29.96,South,189,5.0,7.0,84,0.00,,,0.00,meteohub,2013-10-05 03:26:00,
2013-10-04 22:31:00,74.1,68.9,29.96,SSE,153,4.0,7.0,84,0.00,,,0.00,meteohub,2013-10-05 03:31:00,
2013-10-04 22:36:00,74.1,68.9,29.96,South,175,3.0,7.0,84,0.00,,,0.00,meteohub,2013-10-05 03:36:00,
2013-10-04 22:41:00,73.9,68.7,29.96,SSE,159,4.0,7.0,84,0.00,,,0.00,meteohub,2013-10-05 03:41:00,
2013-10-04 22:46:00,73.9,68.7,29.96,SSE,165,3.0,7.0,84,0.00,,,0.00,meteohub,2013-10-05 03:46:00,
2013-10-04 22:51:00,73.9,68.7,29.96,South,173,5.0,7.0,84,0.00,,,0.00,meteohub,2013-10-05 03:51:00,
2013-10-04 22:56:00,73.9,68.7,29.95,South,182,7.0,7.0,84,0.00,,,0.00,meteohub,2013-10-05 03:56:00,
2013-10-04 23:01:00,73.9,68.4,29.95,South,178,5.0,7.0,83,0.00,,,0.00,meteohub,2013-10-05 04:01:00,
2013-10-04 23:02:00,73.9,68.7,29.95,South,175,4.0,7.0,84,0.00,,,0.00,meteohub,2013-10-05 04:02:00,
2013-10-04 23:03:00,73.9,68.4,29.95,South,184,4.0,7.0,83,0.00,,,0.00,meteohub,2013-10-05 04:03:00,
2013-10-04 23:08:00,74.1,68.5,29.95,SSE,158,7.0,7.0,83,0.00,,,0.00,meteohub,2013-10-05 04:08:00,
2013-10-04 23:13:00,74.1,68.5,29.95,SSE,163,4.0,7.0,83,0.00,,,0.00,meteohub,2013-10-05 04:13:00,
2013-10-04 23:18:00,73.9,68.4,29.95,SSW,193,5.0,7.0,83,0.00,,,0.00,meteohub,2013-10-05 04:18:00,
2013-10-04 23:23:00,74.1,68.5,29.95,South,179,4.0,8.0,83,0.00,,,0.00,meteohub,2013-10-05 04:23:00,
2013-10-04 23:28:00,73.9,68.7,29.95,SSW,198,5.0,8.0,84,0.00,,,0.00,meteohub,2013-10-05 04:28:00,
2013-10-04 23:33:00,73.9,68.7,29.95,South,173,4.0,8.0,84,0.00,,,0.00,meteohub,2013-10-05 04:33:00,
2013-10-04 23:38:00,73.9,68.7,29.95,SSE,157,4.0,8.0,84,0.00,,,0.00,meteohub,2013-10-05 04:38:00,
2013-10-04 23:43:00,73.9,68.7,29.95,SSE,163,5.0,8.0,84,0.00,,,0.00,meteohub,2013-10-05 04:43:00,
2013-10-04 23:49:00,73.8,68.5,29.95,South,171,1.0,7.0,84,0.00,,,0.00,meteohub,2013-10-05 04:49:00,
2013-10-04 23:54:00,73.8,68.5,29.95,South,181,3.0,7.0,84,0.00,,,0.00,meteohub,2013-10-05 04:54:00,
2013-10-04 23:59:00,73.8,68.5,29.95,South,173,3.0,7.0,84,0.00,,,0.00,meteohub,2013-10-05 04:59:00,